Wind_Speed
15 14 14 13 13 12 11 9 8 8 7 6 6 5 5 6 8 9 10 10 12 12 12 13 12 12 11 10 9 9 8 8 7 7 7 7 6 6 5 5 5 4 4
15 14 14 14 13 12 11 9 8 8 7 7 6 5 5 6 7 9 11 11 13 13 13 13 13 13 12 11 10 9 9 9 8 8 8 8 8 7 7 7 6 6 5
15 15 14 13 12 11 11 9 8 8 7 7 6 5 6 6 7 8 10 11 13 14 14 15 14 13 13 12 11 11 10 10 9 8 9 9 8 8 8 8 8 8 7
15 14 13 12 10 10 10 9 8 7 7 7 6 5 6 6 7 8 9 11 12 12 13 15 15 14 14 14 13 12 11 11 11 10 10 10 10 10 10 9 9 9 9
15 14 13 11 9 8 8 8 7 7 7 7 7 7 7 7 8 9 9 11 12 13 14 15 15 15 15 15 14 13 13 13 12 12 12 11 11 11 11 11 11 11 11
15 13 12 10 9 8 8 7 7 7 7 8 8 8 8 9 9 9 9 11 12 13 14 14 15 15 15 15 15 15 15 14 14 14 13 13 13 13 13 13 13 13 13
13 12 12 10 9 9 8 7 7 7 7 7 8 8 8 9 9 10 10 10 12 13 14 14 14 15 16 16 16 16 16 16 16 16 15 15 15 15 14 15 15 15 15
12 11 11 10 8 8 8 8 7 8 8 8 8 8 8 9 9 10 10 11 12 13 15 15 15 15 16 16 17 17 18 18 18 18 17 17 17 16 16 17 17 17 16
11 10 9 8 7 8 8 7 7 7 8 8 8 8 8 9 9 9 10 11 12 13 15 16 16 16 17 17 18 18 19 19 20 20 19 19 19 18 18 18 18 18 18
11 9 8 7 7 7 7 7 6 6 7 7 6 6 7 8 9 9 10 11 13 14 15 16 17 18 18 19 19 19 20 20 21 21 21 21 21 20 20 20 21 21 21
9 8 8 8 7 7 8 8 8 7 7 6 6 6 6 7 8 9 10 11 13 14 15 16 17 17 18 18 19 20 21 21 21 22 22 22 22 23 23 23 23 22 22
9 9 8 8 7 8 8 8 8 7 6 5 5 6 6 7 8 9 10 11 12 13 15 16 17 18 18 19 20 21 21 21 21 22 22 22 22 23 23 24 24 23 23
10 10 9 8 7 8 8 8 8 7 6 6 6 7 7 8 9 10 11 11 12 13 14 16 17 18 18 19 20 20 21 21 20 21 21 21 22 22 24 24 24 25 25
11 11 10 9 8 8 8 8 8 8 7 8 7 8 8 8 9 10 11 12 13 13 15 15 17 18 19 19 19 18 19 20 21 20 21 22 22 23 23 24 25 25 25
13 13 12 11 9 9 9 9 8 8 8 8 8 9 9 9 9 10 10 11 11 12 13 14 15 16 17 18 18 18 18 19 20 21 22 22 23 23 24 25 25 25 26
14 14 13 11 11 11 10 10 10 10 10 10 10 10 10 10 10 10 10 11 12 12 13 14 15 16 17 18 18 19 20 21 22 22 23 23 24 25 25 25 26 26 27
16 15 14 13 13 13 13 12 11 12 12 12 12 12 12 12 12 12 12 12 13 13 14 14 15 16 17 18 19 20 20 21 21 22 23 23 24 25 26 27 27 28 29
17 16 16 15 14 14 15 14 14 14 14 14 14 14 15 15 14 14 14 14 14 15 14 15 16 18 19 19 19 21 21 21 22 23 23 24 25 25 26 26 27 28 29
19 19 18 17 16 17 17 16 16 16 17 17 17 17 17 16 16 16 16 16 16 16 16 16 17 17 18 18 20 21 21 22 23 24 25 25 26 27 28 28 28 30 31
22 21 20 19 19 19 19 19 19 19 19 19 19 19 18 18 17 17 17 17 17 17 18 18 19 19 19 20 20 20 21 23 24 25 26 26 27 28 28 29 31 32 33
24 23 22 22 21 21 21 21 21 21 21 21 21 20 20 19 19 19 19 19 19 19 20 20 20 21 21 22 22 22 23 24 25 26 27 27 28 28 29 31 31 32 33
26 25 24 24 23 23 23 23 23 23 23 23 23 22 22 21 21 21 21 21 21 21 21 21 22 22 22 22 23 24 25 25 26 26 27 27 28 28 30 31 31 33 35
29 28 27 26 25 25 25 24 24 25 24 24 24 24 23 23 23 23 22 22 22 22 22 22 22 23 22 23 24 25 25 25 25 26 26 27 28 29 31 32 33 35 36
30 30 29 28 27 27 26 26 26 26 26 25 25 25 24 24 23 23 23 23 23 23 23 23 23 23 24 24 25 25 26 26 27 27 27 29 30 31 33 34 34 36 37
31 31 30 29 28 28 28 27 27 27 26 25 25 24 24 24 23 23 23 23 23 23 23 23 23 24 24 25 25 25 26 26 27 27 29 30 30 31 33 34 36 37 37
31 31 30 30 29 29 28 28 28 28 27 26 25 24 24 24 24 23 23 23 23 23 24 24 25 25 25 25 26 25 25 26 27 29 30 31 31 33 33 34 35 35 36
Wind_Direction
329 325 320 316 315 316 318 319 315 314 311 311 301 278 250 238 231 227 221 211 209 213 212 209 209 208 205 204 206 208 212 214 216 219 223 227 231 232 239 242 240 236 239
325 324 317 309 307 308 309 307 302 306 306 304 300 281 259 242 239 232 223 218 216 216 213 211 209 208 208 211 212 214 217 219 224 227 228 230 233 237 238 239 238 241 246
322 320 319 309 302 301 301 294 289 295 296 295 291 272 264 245 227 224 224 224 219 218 218 215 214 214 215 217 219 221 223 226 229 230 231 234 237 237 239 238 241 246 251
326 326 324 315 304 298 301 291 278 284 287 291 288 275 263 238 228 230 233 227 221 220 221 219 220 220 221 223 225 226 226 229 232 234 237 241 241 241 244 245 246 249 253
327 327 324 316 306 295 300 295 280 280 282 281 280 270 254 240 234 237 236 230 225 225 222 222 223 222 226 229 231 231 230 232 235 239 241 244 244 245 248 249 251 252 254
326 326 324 317 306 298 304 297 289 281 279 274 273 265 250 242 239 237 236 231 226 226 225 225 225 225 228 231 234 236 235 236 239 242 244 245 246 247 249 251 252 253 254
321 323 321 317 314 312 311 300 291 287 281 276 271 263 251 243 240 236 236 233 227 225 225 226 228 229 231 235 238 240 240 241 244 246 248 248 248 250 251 253 255 256 257
323 323 322 315 312 315 314 300 290 286 282 277 272 261 254 248 244 241 239 236 231 231 230 231 232 233 236 239 241 243 244 245 246 249 251 252 251 253 255 257 258 259 260
321 317 319 315 314 318 316 304 297 294 289 279 272 263 253 248 251 249 243 239 236 238 237 237 238 240 242 245 246 246 247 249 250 251 251 252 253 255 259 260 260 261 261
324 321 318 323 325 324 327 330 314 308 302 288 277 270 258 253 251 250 243 242 243 243 243 245 242 244 246 248 250 250 250 252 253 254 253 254 255 257 260 261 262 264 264
326 327 319 319 321 325 328 329 323 316 306 295 282 276 272 261 261 256 250 251 250 249 250 249 245 247 248 250 252 253 253 254 255 256 256 255 257 259 260 261 263 265 266
321 324 322 317 315 316 317 322 327 327 314 297 293 286 282 272 266 262 260 259 256 253 252 251 250 250 252 252 253 254 254 254 256 259 259 259 259 260 260 262 264 266 268
316 319 318 314 310 311 310 313 319 325 325 308 298 295 291 285 280 273 268 267 262 256 254 253 254 255 256 256 258 258 255 254 257 259 259 259 260 262 262 263 264 266 268
308 310 312 307 300 300 302 305 309 312 315 316 311 306 302 296 288 281 277 272 265 257 255 256 257 257 257 259 260 260 258 257 257 260 260 260 262 263 264 265 267 269 270
304 306 308 305 303 303 303 306 307 305 307 309 310 309 308 305 298 289 284 280 272 266 263 261 259 260 259 259 260 261 261 261 261 262 264 265 266 264 266 268 269 271 271
298 305 303 303 303 300 299 300 298 297 298 300 300 302 304 306 303 295 286 288 283 274 268 263 264 264 262 260 261 263 262 263 264 264 265 268 270 269 269 269 269 272 273
291 297 302 299 298 296 295 296 292 291 292 293 295 296 297 300 299 295 293 292 287 284 276 272 271 269 266 267 265 265 265 265 266 266 266 270 273 274 274 273 273 272 274
290 292 299 296 294 293 293 292 291 291 292 291 292 292 292 292 293 293 291 290 287 283 281 276 274 273 271 268 267 268 268 268 269 268 269 273 276 276 277 276 275 274 276
285 290 294 293 291 289 289 289 290 290 289 290 289 289 290 291 290 289 288 286 286 284 281 279 278 275 272 270 269 269 270 272 272 272 273 275 276 278 278 276 276 277 280
283 285 286 288 289 288 287 287 289 289 288 288 288 289 288 287 287 288 286 285 284 284 282 279 277 275 273 273 274 273 273 274 274 274 274 276 278 279 279 278 278 280 282
278 279 282 285 286 286 285 285 286 287 287 288 289 288 287 284 284 285 284 283 283 282 281 279 278 275 274 273 272 271 272 275 275 276 277 279 280 280 281 281 282 283 284
276 279 282 284 285 284 283 283 284 285 286 287 286 286 285 283 282 283 282 281 281 282 281 278 277 277 275 274 275 274 274 276 277 278 279 280 281 281 281 282 283 285 285
276 279 281 284 284 283 282 282 283 284 285 284 283 284 284 283 282 282 281 282 282 282 282 279 278 277 278 279 279 279 279 277 277 279 282 282 282 282 283 284 286 286 287
275 277 279 280 281 281 281 281 282 284 284 284 283 282 282 282 281 280 279 280 281 281 281 280 279 278 278 280 281 280 281 281 281 282 283 283 283 284 285 287 288 289 291
274 274 276 277 278 278 280 281 281 282 283 283 282 282 281 281 280 279 279 278 278 278 278 279 279 280 280 282 283 283 282 282 284 283 284 285 286 288 290 290 291 292 293
272 272 273 275 276 277 279 280 281 281 282 281 280 281 280 280 280 279 278 276 276 276 278 280 279 280 281 282 283 285 285 285 285 285 286 287 288 290 292 293 294 295 296
Height
5889 5887 5885 5883 5882 5881 5880 5879 5878 5877 5877 5876 5876 5876 5876 5876 5876 5877 5879 5880 5882 5884 5886 5888 5890 5891 5892 5893 5894 5896 5897 5897 5898 5899 5899 5900 5900 5900 5901 5901 5900 5900 5900
5888 5886 5883 5881 5880 5879 5878 5877 5876 5876 5875 5875 5874 5874 5874 5874 5875 5876 5877 5879 5880 5882 5884 5886 5888 5889 5891 5892 5893 5894 5895 5896 5897 5898 5898 5899 5900 5899 5900 5900 5900 5899 5899
5886 5884 5881 5879 5877 5876 5875 5875 5875 5874 5874 5873 5872 5872 5872 5873 5873 5874 5875 5877 5878 5880 5882 5884 5886 5887 5889 5890 5891 5892 5893 5894 5895 5896 5897 5897 5897 5898 5899 5899 5899 5898 5898
5884 5881 5878 5875 5874 5874 5873 5872 5872 5872 5872 5871 5871 5871 5871 5871 5872 5873 5874 5875 5876 5878 5879 5881 5883 5885 5886 5888 5889 5890 5891 5892 5893 5894 5895 5895 5896 5896 5897 5897 5897 5897 5897
5881 5879 5877 5874 5873 5872 5872 5870 5870 5870 5870 5870 5869 5869 5869 5869 5870 5871 5872 5873 5874 5875 5877 5879 5880 5882 5884 5885 5887 5888 5889 5890 5890 5891 5892 5893 5893 5894 5894 5895 5895 5895 5895
5879 5877 5875 5873 5872 5871 5870 5869 5868 5868 5868 5867 5867 5867 5867 5867 5868 5869 5869 5870 5872 5873 5874 5876 5878 5879 5881 5882 5884 5885 5886 5887 5887 5888 5889 5890 5890 5891 5891 5892 5892 5892 5892
5877 5875 5873 5872 5871 5870 5868 5867 5867 5866 5865 5865 5865 5865 5865 5865 5866 5866 5867 5868 5869 5870 5871 5873 5875 5876 5878 5879 5880 5881 5882 5883 5884 5885 5885 5886 5887 5887 5888 5888 5888 5889 5889
5874 5873 5872 5871 5870 5868 5867 5865 5864 5864 5863 5863 5863 5863 5863 5863 5863 5864 5864 5865 5866 5868 5869 5870 5872 5873 5874 5876 5877 5878 5879 5879 5880 5881 5881 5882 5883 5884 5884 5884 5885 5885 5885
5872 5871 5870 5869 5868 5866 5865 5863 5862 5862 5861 5860 5860 5860 5860 5861 5861 5861 5862 5863 5864 5865 5866 5867 5869 5870 5871 5872 5873 5874 5874 5875 5876 5877 5877 5878 5879 5879 5880 5880 5880 5880 5880
5870 5868 5867 5867 5866 5865 5863 5862 5861 5860 5859 5858 5858 5858 5858 5858 5858 5858 5859 5860 5861 5862 5863 5864 5865 5866 5867 5867 5868 5869 5870 5870 5871 5872 5872 5873 5874 5874 5874 5875 5875 5875 5875
5868 5867 5866 5865 5864 5863 5862 5861 5860 5859 5858 5857 5856 5856 5856 5856 5856 5856 5856 5857 5857 5858 5859 5860 5861 5862 5862 5863 5863 5864 5865 5865 5866 5866 5867 5867 5868 5869 5869 5869 5869 5869 5869
5866 5865 5864 5864 5862 5862 5861 5860 5859 5857 5856 5855 5855 5854 5854 5854 5854 5854 5854 5854 5854 5855 5855 5856 5857 5857 5858 5858 5858 5859 5859 5860 5860 5861 5861 5862 5862 5863 5863 5863 5863 5863 5863
5864 5863 5862 5862 5861 5860 5859 5858 5857 5856 5855 5854 5854 5853 5852 5852 5851 5851 5851 5850 5851 5851 5851 5852 5852 5853 5853 5854 5854 5854 5854 5854 5855 5855 5856 5856 5856 5857 5857 5857 5856 5856 5856
5862 5861 5860 5860 5859 5858 5857 5857 5856 5855 5854 5853 5852 5851 5851 5850 5849 5848 5848 5848 5847 5847 5847 5848 5848 5848 5849 5849 5849 5849 5849 5849 5850 5850 5850 5850 5850 5851 5850 5850 5850 5850 5849
5859 5858 5857 5857 5856 5856 5856 5855 5854 5853 5853 5852 5851 5850 5849 5848 5847 5846 5845 5845 5844 5844 5844 5844 5844 5844 5844 5844 5844 5844 5845 5845 5845 5845 5845 5844 5844 5844 5844 5844 5843 5843 5842
5856 5855 5854 5854 5853 5853 5853 5853 5852 5851 5850 5850 5849 5848 5847 5846 5845 5843 5843 5842 5841 5840 5840 5839 5840 5840 5840 5840 5839 5839 5839 5839 5839 5839 5839 5838 5838 5838 5837 5836 5836 5835 5835
5853 5852 5852 5851 5850 5850 5850 5850 5849 5848 5848 5847 5846 5845 5844 5844 5842 5841 5840 5839 5838 5837 5836 5836 5835 5835 5835 5835 5834 5834 5834 5834 5833 5833 5833 5832 5832 5831 5830 5829 5828 5828 5827
5849 5848 5848 5847 5847 5847 5846 5846 5845 5845 5844 5844 5843 5842 5841 5840 5839 5838 5837 5836 5835 5834 5833 5832 5831 5831 5830 5830 5829 5828 5828 5828 5827 5827 5826 5826 5825 5824 5823 5822 5821 5820 5818
5845 5845 5844 5843 5843 5843 5842 5842 5841 5841 5840 5839 5838 5838 5837 5836 5834 5834 5833 5832 5830 5829 5828 5827 5826 5826 5825 5824 5824 5823 5822 5821 5821 5820 5820 5819 5818 5817 5816 5815 5813 5812 5810
5840 5840 5840 5839 5839 5838 5837 5837 5836 5836 5835 5834 5833 5833 5832 5831 5829 5828 5827 5826 5825 5824 5823 5823 5822 5821 5820 5819 5818 5817 5817 5816 5814 5814 5813 5812 5811 5810 5808 5807 5805 5803 5801
5834 5834 5834 5834 5833 5833 5832 5832 5831 5830 5830 5829 5828 5827 5826 5825 5824 5823 5822 5821 5820 5819 5818 5817 5816 5815 5815 5813 5812 5811 5810 5809 5808 5807 5806 5805 5803 5802 5800 5798 5796 5794 5792
5828 5828 5828 5828 5827 5827 5826 5826 5825 5824 5824 5823 5821 5820 5820 5819 5818 5817 5816 5815 5814 5813 5812 5811 5810 5809 5808 5807 5806 5805 5804 5803 5801 5800 5798 5797 5795 5794 5792 5789 5787 5784 5782
5821 5821 5821 5821 5821 5820 5820 5819 5818 5818 5817 5816 5815 5814 5813 5812 5811 5811 5810 5808 5807 5806 5805 5804 5803 5803 5802 5801 5800 5798 5797 5795 5794 5792 5791 5789 5787 5785 5783 5781 5778 5775 5772
5814 5814 5814 5814 5814 5814 5813 5812 5811 5810 5810 5809 5808 5807 5806 5806 5805 5804 5803 5802 5801 5800 5799 5798 5797 5796 5795 5794 5793 5791 5789 5788 5786 5784 5783 5781 5779 5777 5774 5772 5769 5766 5762
5806 5807 5807 5807 5807 5806 5805 5805 5804 5803 5802 5801 5800 5800 5799 5798 5797 5797 5796 5795 5794 5793 5792 5791 5790 5789 5788 5787 5785 5784 5782 5780 5778 5776 5775 5773 5770 5768 5765 5762 5759 5756 5752
5799 5798 5798 5798 5798 5798 5797 5797 5796 5795 5795 5794 5793 5793 5792 5791 5790 5789 5788 5787 5787 5786 5785 5784 5783 5782 5780 5779 5777 5775 5774 5772 5770 5769 5766 5764 5761 5759 5756 5753 5749 5746 5742